[[{"header":{"parameterUnit":"m.s-1","parameterCategory":1,"la1":30.2991,"la2":30.254,"lo1":-89.0895,"lo2":-89.0444,"dy":0.0017,"dx":0.0017,"nx":28,"ny":28,"refTime":"2023-09-04T03:00:00:Z","depth":0,"parameterNumber":2,"parameterNumberName":"U-component_of_WINDS"},"data":[0,0,0,0,0,0,0,0,0,0,0,0,0,0,0,0,0,0,0,0,0,0,0,0,0,0,0,0,0,0,0,0,0,0,0,0,0,0,0,0,0,0,0,0,0,0,0,0,0,0,0,0,0,0,0,0,0,0,-3.1857,-3.1856,0,-3.1809,-3.1808,-3.1807,-3.1756,-3.1755,-3.1754,-3.1754,-3.1703,-3.1702,-3.1702,0,0,0,0,0,0,0,0,0,0,0,0,0,-3.1904,-3.1903,-3.1857,-3.1856,-3.1856,-3.1809,-3.1808,-3.1807,-3.1756,-3.1755,-3.1754,-3.1753,-3.1703,-3.1702,-3.1702,0,0,0,0,0,0,0,0,0,0,0,0,0,-3.1872,-3.1903,-3.1857,-3.1824,-3.1821,-3.1809,-3.1808,-3.1807,-3.1756,-3.1755,-3.1754,-3.1753,-3.1703,-3.1703,-3.1702,-3.1717,0,0,-3.1698,-3.1698,0,0,0,0,0,0,0,0,-3.1874,-3.1871,-3.183,-3.1827,-3.1823,-3.1787,-3.1806,-3.1777,-3.1756,-3.1781,-3.1754,-3.1752,-3.1732,-3.1728,-3.1722,-3.1715,-3.1713,-3.1698,-3.1698,-3.1697,-3.1697,0,0,0,0,0,0,0,-3.1877,-3.1873,-3.1838,-3.1829,-3.1825,-3.1812,-3.1806,-3.18,-3.1763,-3.1778,-3.1775,-3.177,-3.173,-3.1723,-3.172,-3.1712,-3.1698,-3.1698,-3.1697,-3.1697,-3.1716,-3.1717,0,0,0,0,0,0,-3.1884,-3.1875,-3.1839,-3.1836,-3.1846,-3.1812,-3.1806,-3.18,-3.1763,-3.1756,-3.1771,-3.1767,-3.1725,-3.1721,-3.1718,-3.1734,-3.1697,-3.1696,-3.1696,-3.1715,-3.1716,-3.1717,0,0,0,0,0,0,-3.1885,-3.1881,-3.1841,-3.1854,-3.1848,-3.1812,-3.1806,-3.1799,-3.1792,-3.1757,-3.175,-3.1771,-3.1724,-3.172,-3.1718,-3.1731,-3.1696,-3.1695,-3.1713,-3.1715,-3.1717,-3.1765,0,0,0,0,0,0,-3.1887,-3.1882,-3.1887,-3.1855,-3.1848,-3.1842,-3.1807,-3.1799,-3.1791,-3.1786,-3.1755,-3.1749,-3.1723,-3.172,-3.1717,-3.1729,-3.1694,-3.1712,-3.1714,-3.1716,-3.1762,-3.1769,-3.1774,0,0,0,0,0,-3.1888,-3.1903,-3.1888,-3.1884,-3.1854,-3.1843,-3.1839,-3.1809,-3.1792,-3.1797,-3.1775,-3.175,-3.1731,-3.172,-3.1716,-3.1729,-3.1711,-3.1714,-3.1716,-3.176,-3.1767,-3.1774,0,0,0,0,0,0,-3.1937,-3.1898,-3.1881,-3.1885,-3.1868,-3.1834,-3.184,-3.1818,-3.1804,-3.1801,-3.1764,-3.1757,-3.176,-3.1744,-3.1733,-3.1742,-3.1717,-3.1719,-3.1752,-3.1759,-3.1764,-3.1767,-3.1693,0,0,0,0,0,-3.1948,-3.1943,-3.1909,-3.1916,-3.1908,-3.1876,-3.187,-3.1848,-3.1829,-3.1821,-3.1798,-3.178,-3.177,-3.1764,-3.1752,-3.1761,-3.1753,-3.1767,-3.1773,-3.1778,-3.178,-3.1783,-3.1789,-3.1726,-3.1726,-3.1726,0,0,-3.1971,-3.1949,-3.1947,-3.1925,-3.1909,-3.1904,-3.187,-3.1865,-3.1861,-3.182,-3.1817,-3.18,-3.1777,-3.1781,-3.1781,-3.1768,-3.1796,-3.1781,-3.1785,-3.1784,-3.1786,-3.1792,-3.1797,-3.1727,-3.1727,-3.1727,0,0,-3.201,-3.1993,-3.1997,-3.1982,-3.1959,-3.1937,-3.1939,-3.1908,-3.1896,-3.1892,-3.1862,-3.1856,-3.184,-3.1825,-3.1815,-3.185,-3.1826,-3.1848,-3.1876,-3.188,-3.1885,-3.1889,-3.1901,-3.1906,-3.185,-3.185,-3.185,0,-3.2041,-3.2032,-3.2001,-3.1999,-3.199,-3.1954,-3.1958,-3.1945,-3.1919,-3.1913,-3.1899,-3.1878,-3.186,-3.186,-3.1868,-3.1862,-3.1862,-3.185,-3.1887,-3.1891,-3.1894,-3.1905,-3.191,-3.1852,-3.1852,-3.1852,-3.1852,0,-3.2071,-3.2065,-3.2071,-3.2048,-3.204,-3.2041,-3.201,-3.2006,-3.1986,-3.1967,-3.1964,-3.1942,-3.1925,-3.1924,-3.1904,-3.1921,-3.1913,-3.1894,-3.1868,-3.1903,-3.1913,-3.1917,-3.1856,-3.1855,-3.1854,-3.1854,0,0,-3.2136,-3.2098,-3.21,-3.2089,-3.2062,-3.2057,-3.2057,-3.2041,-3.2038,-3.2022,-3.202,-3.2008,-3.199,-3.1979,-3.1957,-3.1961,-3.199,-3.1941,-3.194,-3.195,-3.2006,-3.202,-3.2025,-3.1975,-3.1975,-3.1976,-3.2008,0,-3.2169,-3.2166,-3.214,-3.2144,-3.2139,-3.2105,-3.2105,-3.2088,-3.207,-3.2063,-3.2043,-3.2035,-3.2012,-3.2005,-3.2007,-3.1986,-3.2,-3.1983,-3.1972,-3.1972,-3.1977,-3.203,-3.2045,-3.2075,-3.2011,-3.2012,-3.2012,0,-3.2207,-3.2194,-3.2198,-3.2171,-3.2168,-3.2168,-3.2152,-3.2146,-3.2126,-3.2113,-3.2102,-3.2078,-3.2076,-3.2053,-3.2049,-3.2038,-3.2032,-3.2021,-3.2022,-3.2018,-3.1993,-3.2027,-3.2085,-3.2089,-3.2018,-3.2017,-3.2017,0,-3.2253,-3.2237,-3.2237,-3.2229,-3.2198,-3.2199,-3.2186,-3.2165,-3.2158,-3.2144,-3.2139,-3.2126,-3.2118,-3.2108,-3.2081,-3.2067,-3.208,-3.2055,-3.2069,-3.2069,-3.2071,-3.2071,-3.2128,-3.207,-3.207,-3.207,-3.207,0,-3.2291,-3.2295,-3.2257,-3.2257,-3.2261,-3.2231,-3.2235,-3.2218,-3.2201,-3.2197,-3.2168,-3.2165,-3.2131,-3.2124,-3.2104,-3.2103,-3.21,-3.2089,-3.2083,-3.2091,-3.2092,-3.2085,-3.2082,-3.2071,-3.2071,-3.2071,-3.2071,0,-3.2343,-3.2318,-3.2316,-3.2287,-3.228,-3.2284,-3.2259,-3.2258,-3.2239,-3.2235,-3.2232,-3.2202,-3.2193,-3.2166,-3.215,-3.2136,-3.2142,-3.2132,-3.2148,-3.2144,-3.2159,-3.2157,-3.2211,-3.2216,-3.2157,-3.2158,-3.2159,0,-3.2368,-3.237,-3.2342,-3.2338,-3.2326,-3.232,-3.2313,-3.2284,-3.2278,-3.2256,-3.2258,-3.2247,-3.2235,-3.2222,-3.2199,-3.2187,-3.2175,-3.2195,-3.2173,-3.2181,-3.2174,-3.2174,-3.2174,-3.22,-3.22,-3.2201,-3.2202,0,-3.2415,-3.2403,-3.2394,-3.2381,-3.2374,-3.2362,-3.2348,-3.2347,-3.2314,-3.2309,-3.2299,-3.2291,-3.2275,-3.2264,-3.2248,-3.2235,-3.2213,-3.2209,-3.2211,-3.2218,-3.2227,-3.2222,-3.216,-3.2207,-3.2207,-3.2206,-3.2206,-3.2206,-3.2454,-3.2454,-3.2435,-3.2426,-3.2413,-3.2401,-3.2399,-3.2381,-3.2372,-3.2357,-3.2341,-3.2333,-3.2315,-3.2291,-3.228,-3.2273,-3.2261,-3.2265,-3.2265,-3.2266,-3.227,-3.223,-3.227,-3.227,-3.227,-3.227,-3.227,0,-3.2499,-3.2485,-3.2477,-3.246,-3.2453,-3.2434,-3.2419,-3.2414,-3.2408,-3.2393,-3.2383,-3.2372,-3.2362,-3.2339,-3.2326,-3.2325,-3.2315,-3.2323,-3.2322,-3.2319,-3.2281,-3.228,-3.2332,-3.2332,-3.2332,-3.2332,-3.2332,-3.2332,-3.2521,-3.2521,-3.2507,-3.25,-3.2486,-3.2479,-3.2472,-3.2461,-3.2448,-3.2438,-3.2429,-3.2415,-3.2396,-3.2382,-3.2372,-3.2366,-3.2362,-3.2373,-3.2363,-3.2328,-3.2322,-3.2316,-3.2315,-3.2373,-3.2373,-3.2401,-3.2401,-3.2401]},{"header":{"parameterUnit":"m.s-1","parameterCategory":1,"la1":30.2991,"la2":30.254,"lo1":-89.0895,"lo2":-89.0444,"dy":0.0017,"dx":0.0017,"nx":28,"ny":28,"refTime":"2023-09-04T03:00:00:Z","depth":0,"parameterNumber":3,"parameterNumberName":"V-component_of_WINDS"},"data":[0,0,0,0,0,0,0,0,0,0,0,0,0,0,0,0,0,0,0,0,0,0,0,0,0,0,0,0,0,0,0,0,0,0,0,0,0,0,0,0,0,0,0,0,0,0,0,0,0,0,0,0,0,0,0,0,0,0,2.3825,2.3825,0,2.3836,2.3836,2.3836,2.388,2.3881,2.3882,2.3883,2.3891,2.389,2.3889,0,0,0,0,0,0,0,0,0,0,0,0,0,2.3839,2.3838,2.3825,2.3825,2.3825,2.3836,2.3836,2.3836,2.388,2.3881,2.3882,2.3884,2.3891,2.389,2.3889,0,0,0,0,0,0,0,0,0,0,0,0,0,2.3839,2.3838,2.3825,2.3848,2.3851,2.3836,2.3836,2.3836,2.388,2.3881,2.3883,2.3884,2.3891,2.389,2.3889,2.3852,0,0,2.3886,2.3885,0,0,0,0,0,0,0,0,2.3839,2.3839,2.3845,2.3847,2.3849,2.3858,2.3844,2.3841,2.3879,2.3869,2.3883,2.3885,2.3879,2.3879,2.3877,2.3852,2.3852,2.3886,2.3885,2.3884,2.3884,0,0,0,0,0,0,0,2.3839,2.3838,2.3829,2.3845,2.3848,2.3857,2.3859,2.3844,2.3865,2.387,2.3873,2.3874,2.388,2.3878,2.3878,2.3853,2.3886,2.3885,2.3884,2.3884,2.3798,2.3796,0,0,0,0,0,0,2.3836,2.3838,2.3829,2.383,2.3848,2.3856,2.3858,2.3854,2.3865,2.3868,2.3872,2.3876,2.3879,2.3879,2.3878,2.3835,2.3884,2.3883,2.3883,2.3799,2.3797,2.3796,0,0,0,0,0,0,2.3836,2.3835,2.3829,2.3835,2.3835,2.3854,2.3849,2.3853,2.3852,2.3867,2.3871,2.3867,2.388,2.388,2.3858,2.3836,2.3883,2.3882,2.3801,2.3799,2.3797,2.3749,0,0,0,0,0,0,2.3836,2.3835,2.3821,2.3834,2.3834,2.3809,2.3848,2.3852,2.385,2.3854,2.3863,2.3866,2.3882,2.386,2.3857,2.3835,2.3881,2.3803,2.38,2.3797,2.3753,2.3745,2.3739,0,0,0,0,0,2.3837,2.3806,2.382,2.3819,2.3818,2.3808,2.3808,2.3828,2.3848,2.3834,2.3845,2.3866,2.3839,2.3857,2.3855,2.3832,2.3805,2.3801,2.3798,2.3756,2.3747,2.3739,0,0,0,0,0,0,2.3789,2.3809,2.3824,2.3797,2.3801,2.3815,2.3798,2.3817,2.3814,2.3818,2.3842,2.3844,2.3819,2.3824,2.3843,2.3797,2.3826,2.3821,2.3795,2.3786,2.3779,2.3778,2.388,0,0,0,0,0,2.3775,2.3766,2.3784,2.3758,2.376,2.3779,2.3775,2.379,2.3794,2.3795,2.3804,2.3806,2.3799,2.3793,2.3786,2.3754,2.3756,2.3737,2.373,2.3725,2.372,2.3704,2.3695,2.3784,2.3784,2.3784,0,0,2.3747,2.3757,2.3749,2.3749,2.3754,2.3743,2.3779,2.3766,2.3759,2.3793,2.3774,2.378,2.3784,2.3757,2.3746,2.376,2.3697,2.372,2.3716,2.3714,2.3699,2.3691,2.3683,2.3781,2.3782,2.3782,0,0,2.369,2.3696,2.3676,2.368,2.3687,2.37,2.3695,2.3707,2.3714,2.3695,2.3721,2.3711,2.3698,2.3699,2.3699,2.3643,2.3662,2.3641,2.3604,2.3588,2.3581,2.3575,2.3555,2.3547,2.3636,2.3636,2.3636,0,2.3653,2.3639,2.3663,2.3649,2.3648,2.368,2.366,2.3662,2.3666,2.3664,2.3681,2.3665,2.367,2.3644,2.3631,2.3629,2.3623,2.3639,2.358,2.3574,2.3569,2.355,2.3543,2.3634,2.3634,2.3634,2.3634,0,2.3593,2.3583,2.3566,2.3571,2.3568,2.355,2.3571,2.3565,2.3581,2.3592,2.3573,2.358,2.3576,2.3571,2.3586,2.3547,2.3556,2.3576,2.3605,2.3558,2.354,2.3533,2.363,2.3631,2.3631,2.3632,0,0,2.3505,2.3524,2.3517,2.352,2.3531,2.3523,2.3507,2.3505,2.3499,2.3501,2.3487,2.3476,2.3495,2.3494,2.3509,2.3495,2.345,2.3517,2.3517,2.3504,2.3408,2.3392,2.3384,2.3464,2.3462,2.3461,2.3408,0,2.345,2.3425,2.3447,2.3417,2.3408,2.3439,2.3425,2.343,2.344,2.3433,2.3444,2.3435,2.3461,2.3461,2.3448,2.3458,2.3431,2.3463,2.345,2.345,2.3448,2.3375,2.3358,2.3307,2.3401,2.34,2.3399,0,2.3383,2.3383,2.3353,2.3366,2.3363,2.335,2.335,2.3344,2.3349,2.3358,2.3357,2.3377,2.3361,2.3391,2.3369,2.339,2.3387,2.3391,2.339,2.3389,2.3421,2.3371,2.3291,2.3283,2.3389,2.339,2.339,0,2.3321,2.3314,2.3295,2.3296,2.3311,2.3302,2.3307,2.3315,2.3312,2.3312,2.331,2.3307,2.3306,2.3303,2.3321,2.3341,2.3297,2.3328,2.3303,2.3302,2.3291,2.3291,2.3209,2.329,2.329,2.329,2.329,0,2.3257,2.3237,2.3268,2.3256,2.3234,2.3259,2.3237,2.3246,2.3252,2.3242,2.3269,2.3259,2.3284,2.3276,2.329,2.327,2.3269,2.3275,2.3278,2.3272,2.3271,2.3269,2.3273,2.3288,2.3289,2.3289,2.3289,0,2.3184,2.3204,2.3185,2.3202,2.3205,2.3189,2.3202,2.3192,2.3204,2.3191,2.319,2.3209,2.3201,2.3219,2.3214,2.3223,2.3195,2.3204,2.3193,2.3196,2.317,2.3172,2.3082,2.3072,2.316,2.3159,2.3158,0,2.3142,2.3127,2.3143,2.3139,2.3143,2.3136,2.3134,2.3158,2.3155,2.3161,2.3149,2.3144,2.3141,2.3127,2.314,2.3136,2.3146,2.3115,2.3145,2.3139,2.3145,2.3145,2.3143,2.3108,2.3107,2.3106,2.3105,0,2.3064,2.3075,2.3072,2.3072,2.3069,2.307,2.3073,2.3067,2.3093,2.3088,2.3081,2.3079,2.3074,2.3068,2.3068,2.3073,2.3093,2.3096,2.309,2.3082,2.3076,2.3079,2.3175,2.3097,2.3098,2.3099,2.3099,2.31,2.3005,2.2994,2.3004,2.2999,2.3004,2.3006,2.2997,2.3009,2.3005,2.3003,2.3018,2.3008,2.3014,2.3016,2.3019,2.3011,2.3024,2.3016,2.3013,2.3011,2.3006,2.3078,2.3011,2.3011,2.3011,2.3011,2.3011,0,2.2929,2.2937,2.2933,2.2937,2.2933,2.2954,2.2958,2.2953,2.2945,2.295,2.2947,2.2939,2.2934,2.2947,2.2944,2.2935,2.2944,2.2933,2.2934,2.2934,2.2994,2.3,2.2926,2.2926,2.2926,2.2926,2.2926,2.2926,2.2889,2.2872,2.2884,2.2869,2.2877,2.2868,2.2869,2.2871,2.2875,2.2865,2.2862,2.2871,2.2879,2.2877,2.2873,2.2877,2.2874,2.286,2.2867,2.2922,2.293,2.2938,2.2943,2.2859,2.2859,2.2808,2.2807,2.2807]}]]